[[{"header":{"parameterUnit":"m.s-1","parameterCategory":1,"la1":30.2991,"la2":30.254,"lo1":-89.0895,"lo2":-89.0444,"dy":0.0017,"dx":0.0017,"nx":28,"ny":28,"refTime":"2024-07-29T21:00:00:Z","depth":0,"parameterNumber":2,"parameterNumberName":"U-component_of_WINDS"},"data":[0,0,0,0,0,0,0,0,0,0,0,0,0,0,0,0,0,0,0,0,0,0,0,0,0,0,0,0,0,0,0,0,0,0,0,0,0,0,0,0,0,0,0,0,0,0,0,0,0,0,0,0,0,0,0,0,0,0,3.5418,3.5419,0,3.5542,3.5543,3.5545,3.5501,3.5499,3.5496,3.5493,3.562,3.5626,3.5631,0,0,0,0,0,0,0,0,0,0,0,0,0,3.5141,3.5146,3.5418,3.5419,3.5421,3.5542,3.5544,3.5545,3.5502,3.5499,3.5495,3.5492,3.5618,3.5625,3.5632,0,0,0,0,0,0,0,0,0,0,0,0,0,3.5263,3.5148,3.5418,3.5414,3.5415,3.5541,3.5544,3.5546,3.5503,3.5499,3.5494,3.5491,3.5616,3.5624,3.5633,3.577,0,0,3.566,3.5664,0,0,0,0,0,0,0,0,3.5256,3.5273,3.5413,3.5414,3.5416,3.5502,3.5492,3.5621,3.5504,3.5469,3.5493,3.5489,3.5584,3.5595,3.5627,3.5776,3.5782,3.5661,3.5666,3.567,3.5673,0,0,0,0,0,0,0,3.5248,3.5268,3.5467,3.5415,3.5417,3.5405,3.5418,3.5516,3.5548,3.5472,3.5469,3.5484,3.5584,3.5619,3.563,3.5784,3.5661,3.5669,3.5674,3.5678,3.6048,3.6053,0,0,0,0,0,0,3.5239,3.5261,3.5463,3.5471,3.5324,3.5414,3.5428,3.5478,3.5547,3.5554,3.5488,3.5482,3.5606,3.562,3.5634,3.5797,3.567,3.5678,3.5684,3.6044,3.6049,3.6054,0,0,0,0,0,0,3.5233,3.5257,3.5458,3.5365,3.539,3.5423,3.548,3.5483,3.5518,3.5559,3.5564,3.5518,3.5603,3.5622,3.5736,3.5801,3.5682,3.5691,3.6039,3.6046,3.6052,3.6126,0,0,0,0,0,0,3.5225,3.5255,3.5309,3.5367,3.5395,3.5559,3.5484,3.5489,3.5534,3.5527,3.5589,3.5595,3.5601,3.5723,3.5745,3.5811,3.5697,3.6033,3.6042,3.605,3.6118,3.6135,3.6149,0,0,0,0,0,3.5216,3.5325,3.5311,3.5336,3.5462,3.5562,3.5579,3.5584,3.5539,3.5592,3.5618,3.5593,3.5791,3.5735,3.576,3.583,3.6029,3.6039,3.6049,3.6111,3.6131,3.6148,0,0,0,0,0,0,3.5274,3.5332,3.5318,3.545,3.5501,3.5555,3.5622,3.5606,3.5671,3.5662,3.5666,3.568,3.5797,3.5825,3.5762,3.5965,3.5903,3.5919,3.5942,3.5962,3.5977,3.5966,3.5705,0,0,0,0,0,3.5302,3.5379,3.5426,3.5538,3.5564,3.5589,3.5633,3.5632,3.5686,3.5707,3.5742,3.5794,3.5868,3.5917,3.5987,3.6122,3.6134,3.6182,3.6198,3.621,3.6223,3.6294,3.6315,3.6088,3.6088,3.6087,0,0,3.5361,3.5402,3.5451,3.555,3.559,3.5669,3.5608,3.5694,3.5752,3.5721,3.583,3.5857,3.5916,3.6041,3.6097,3.6068,3.6288,3.6223,3.6233,3.6239,3.6306,3.6328,3.6347,3.6095,3.6093,3.6092,0,0,3.5507,3.5548,3.5644,3.5685,3.5746,3.5762,3.5785,3.5841,3.5857,3.5968,3.5945,3.6014,3.6142,3.6184,3.6222,3.6383,3.6362,3.6406,3.6486,3.6555,3.6573,3.6589,3.6644,3.6664,3.6419,3.642,3.642,0,3.5572,3.5691,3.5695,3.5783,3.5826,3.5802,3.5898,3.5938,3.6019,3.6049,3.6015,3.6173,3.6211,3.6344,3.6383,3.6416,3.6441,3.6398,3.657,3.6586,3.6601,3.6654,3.6675,3.6424,3.6424,3.6423,3.6423,0,3.5766,3.5849,3.5919,3.5997,3.6049,3.6141,3.6158,3.621,3.6205,3.6224,3.6335,3.638,3.6457,3.6489,3.6486,3.6621,3.6601,3.6569,3.6506,3.6628,3.6677,3.6697,3.6431,3.643,3.6428,3.6427,0,0,3.5952,3.6032,3.6057,3.6091,3.6157,3.622,3.631,3.6386,3.6429,3.6486,3.656,3.6668,3.6639,3.6682,3.6683,3.6744,3.6866,3.6704,3.6705,3.673,3.7015,3.7037,3.706,3.6853,3.6857,3.686,3.7009,0,3.6102,3.6261,3.6267,3.6411,3.6485,3.6463,3.6541,3.6589,3.6609,3.6674,3.6696,3.6772,3.6728,3.6754,3.6813,3.6838,3.6922,3.6828,3.692,3.6923,3.6903,3.7086,3.711,3.7249,3.7029,3.7032,3.7034,0,3.6298,3.6361,3.6512,3.6565,3.6596,3.6667,3.6735,3.68,3.6853,3.6863,3.6911,3.6902,3.6993,3.6929,3.7053,3.6988,3.7026,3.7044,3.705,3.7057,3.6984,3.7096,3.7294,3.7313,3.7065,3.7063,3.7061,0,3.6415,3.6537,3.6643,3.6673,3.6739,3.6788,3.6817,3.6867,3.6911,3.6972,3.7001,3.7071,3.7109,3.7164,3.7174,3.7127,3.7297,3.7235,3.7306,3.7306,3.7341,3.7338,3.7545,3.737,3.737,3.7369,3.7369,0,3.6581,3.6674,3.6696,3.6761,3.6863,3.687,3.6971,3.6996,3.704,3.7109,3.7094,3.7158,3.7169,3.7236,3.7245,3.7344,3.7362,3.7371,3.7372,3.7372,3.737,3.7395,3.7384,3.7375,3.7374,3.7373,3.7372,0,3.6728,3.6747,3.686,3.6913,3.6928,3.7001,3.7045,3.7106,3.7125,3.7211,3.7232,3.726,3.7337,3.7354,3.7446,3.7451,3.7569,3.7561,3.7551,3.7549,3.7618,3.7611,3.7847,3.7877,3.7684,3.7686,3.7688,0,3.6831,3.6902,3.6962,3.7006,3.7038,3.7111,3.7156,3.7165,3.7212,3.7277,3.733,3.7406,3.7467,3.7591,3.7619,3.7689,3.7681,3.7759,3.7692,3.7688,3.7679,3.7674,3.768,3.7771,3.7774,3.7775,3.7777,0,3.7011,3.7017,3.7083,3.7153,3.7207,3.7262,3.7314,3.7352,3.7367,3.7421,3.75,3.7547,3.764,3.7715,3.7784,3.7813,3.7797,3.7798,3.7818,3.7816,3.7806,3.781,3.7583,3.7792,3.7791,3.7789,3.7789,3.7788,3.7138,3.7199,3.725,3.7323,3.7364,3.7412,3.7472,3.7497,3.7563,3.764,3.7641,3.7726,3.7776,3.7868,3.7901,3.7967,3.7942,3.7972,3.7979,3.7985,3.799,3.7798,3.798,3.798,3.7979,3.7979,3.7979,0,3.7315,3.7346,3.7414,3.7487,3.7545,3.7526,3.7582,3.7631,3.7707,3.7755,3.7815,3.7904,3.7976,3.801,3.8081,3.8127,3.8121,3.8145,3.814,3.8146,3.8009,3.7984,3.8148,3.8148,3.8148,3.8148,3.8148,3.8148,3.7413,3.7514,3.7526,3.7646,3.7677,3.7761,3.7794,3.7838,3.7877,3.7977,3.8037,3.8059,3.8101,3.8174,3.8238,3.8246,3.8272,3.8299,3.8303,3.8174,3.8157,3.814,3.8116,3.8305,3.8305,3.8434,3.8435,3.8436]},{"header":{"parameterUnit":"m.s-1","parameterCategory":1,"la1":30.2991,"la2":30.254,"lo1":-89.0895,"lo2":-89.0444,"dy":0.0017,"dx":0.0017,"nx":28,"ny":28,"refTime":"2024-07-29T21:00:00:Z","depth":0,"parameterNumber":3,"parameterNumberName":"V-component_of_WINDS"},"data":[0,0,0,0,0,0,0,0,0,0,0,0,0,0,0,0,0,0,0,0,0,0,0,0,0,0,0,0,0,0,0,0,0,0,0,0,0,0,0,0,0,0,0,0,0,0,0,0,0,0,0,0,0,0,0,0,0,0,3.4684,3.4685,0,3.4787,3.4788,3.4789,3.4789,3.4788,3.4787,3.4786,3.4886,3.489,3.4894,0,0,0,0,0,0,0,0,0,0,0,0,0,3.4483,3.4487,3.4684,3.4685,3.4687,3.4787,3.4788,3.479,3.479,3.4788,3.4787,3.4785,3.4885,3.489,3.4894,0,0,0,0,0,0,0,0,0,0,0,0,0,3.4576,3.4488,3.4684,3.4699,3.4701,3.4786,3.4788,3.479,3.479,3.4788,3.4786,3.4784,3.4883,3.4889,3.4895,3.497,0,0,3.4913,3.4915,0,0,0,0,0,0,0,0,3.4571,3.4584,3.4696,3.4698,3.4701,3.4774,3.4754,3.485,3.4791,3.4756,3.4786,3.4783,3.485,3.4858,3.4882,3.4975,3.4979,3.4913,3.4917,3.4919,3.4921,0,0,0,0,0,0,0,3.4565,3.4579,3.4725,3.4697,3.47,3.4699,3.471,3.4772,3.4813,3.4759,3.4759,3.4772,3.4851,3.4876,3.4884,3.4981,3.4913,3.4918,3.4922,3.4924,3.5139,3.5141,0,0,0,0,0,0,3.4556,3.4574,3.4721,3.4728,3.463,3.4704,3.4717,3.4752,3.4812,3.4819,3.4773,3.4771,3.4867,3.4877,3.4888,3.4979,3.4919,3.4925,3.4928,3.5137,3.514,3.5142,0,0,0,0,0,0,3.4551,3.4569,3.4717,3.4651,3.467,3.471,3.475,3.4755,3.478,3.4823,3.483,3.4792,3.4866,3.488,3.495,3.4983,3.4927,3.4933,3.5134,3.5138,3.5141,3.5163,0,0,0,0,0,0,3.4546,3.4567,3.4598,3.4652,3.4673,3.4779,3.4752,3.4759,3.4791,3.479,3.4842,3.4849,3.4866,3.4941,3.4956,3.499,3.4937,3.5132,3.5136,3.514,3.5159,3.5167,3.5173,0,0,0,0,0,3.4539,3.4599,3.4599,3.4617,3.4713,3.4781,3.4793,3.4813,3.4794,3.4824,3.4851,3.4847,3.4977,3.4948,3.4965,3.5001,3.513,3.5135,3.5139,3.5156,3.5165,3.5173,0,0,0,0,0,0,3.4547,3.4607,3.4607,3.4688,3.473,3.4781,3.482,3.4821,3.4868,3.4864,3.4885,3.4897,3.4966,3.4991,3.4958,3.5076,3.5051,3.5059,3.5058,3.5067,3.5073,3.5065,3.4942,0,0,0,0,0,3.4559,3.4611,3.466,3.4726,3.4747,3.478,3.481,3.4821,3.4865,3.4882,3.4914,3.4955,3.5005,3.5037,3.5085,3.5163,3.5173,3.5196,3.5202,3.5208,3.5214,3.5256,3.5266,3.5158,3.5158,3.5158,0,0,3.4582,3.4621,3.4653,3.4728,3.4762,3.4814,3.4794,3.4851,3.4889,3.489,3.4959,3.4983,3.503,3.5104,3.5138,3.5126,3.5246,3.5214,3.5218,3.5222,3.5262,3.5272,3.5281,3.5162,3.5161,3.5161,0,0,3.4652,3.4688,3.4746,3.478,3.4832,3.4853,3.4867,3.4919,3.4935,3.5005,3.5006,3.5051,3.5137,3.517,3.5198,3.5279,3.5277,3.5294,3.5328,3.5368,3.5376,3.5384,3.5411,3.5421,3.53,3.53,3.53,0,3.4675,3.4755,3.4775,3.4832,3.4864,3.4869,3.4927,3.4959,3.5023,3.5044,3.503,3.5137,3.5169,3.525,3.527,3.5293,3.5308,3.5288,3.5374,3.5382,3.5389,3.5415,3.5426,3.5302,3.5302,3.5302,3.5302,0,3.4779,3.4835,3.4875,3.4938,3.4975,3.5032,3.506,3.5094,3.5102,3.5124,3.5193,3.5232,3.5287,3.5307,3.5315,3.5389,3.538,3.537,3.5344,3.54,3.5425,3.5436,3.5304,3.5304,3.5303,3.5303,0,0,3.4858,3.4931,3.4945,3.4973,3.503,3.5073,3.5129,3.5184,3.5213,3.5256,3.5303,3.5375,3.5366,3.5397,3.5408,3.5444,3.5503,3.5429,3.543,3.544,3.5585,3.5592,3.5604,3.5503,3.5505,3.5506,3.5581,0,3.4932,3.5034,3.5054,3.5142,3.5192,3.5197,3.5245,3.5284,3.5306,3.5351,3.5374,3.5424,3.5409,3.5428,3.5463,3.5489,3.5533,3.5484,3.5544,3.5546,3.5532,3.5617,3.5624,3.5693,3.5591,3.5593,3.5594,0,3.5034,3.5081,3.5174,3.5223,3.5245,3.5289,3.534,3.5383,3.5427,3.544,3.5475,3.5482,3.5538,3.5511,3.5588,3.5554,3.558,3.5596,3.5599,3.5604,3.5573,3.5624,3.5716,3.5725,3.561,3.5609,3.5608,0,3.508,3.5167,3.5233,3.5257,3.5316,3.5347,3.5372,3.5414,3.5446,3.549,3.5511,3.5561,3.5588,3.5626,3.5645,3.5623,3.572,3.5694,3.5731,3.573,3.575,3.5749,3.5847,3.5769,3.5769,3.5768,3.5768,0,3.5161,3.5217,3.5255,3.5296,3.5358,3.5379,3.544,3.5465,3.5502,3.5546,3.5553,3.5594,3.5618,3.5661,3.5677,3.5737,3.575,3.576,3.5764,3.576,3.5758,3.5776,3.5771,3.5771,3.577,3.577,3.5769,0,3.5223,3.5251,3.5323,3.5373,3.5387,3.5431,3.5473,3.5512,3.5533,3.5589,3.5603,3.5637,3.5689,3.5712,3.5776,3.5786,3.5854,3.5855,3.584,3.5841,3.5876,3.5872,3.5988,3.6004,3.5916,3.5917,3.5918,0,3.5273,3.5316,3.5371,3.5402,3.5429,3.5478,3.5511,3.5533,3.5566,3.5618,3.565,3.5703,3.5746,3.5828,3.5857,3.5905,3.5906,3.5943,3.5913,3.5907,3.5905,3.5902,3.5905,3.5948,3.5949,3.595,3.5951,0,3.5357,3.5369,3.5416,3.5468,3.5507,3.5549,3.5589,3.5614,3.5642,3.5678,3.5732,3.5766,3.5831,3.5882,3.5932,3.5957,3.5958,3.596,3.5971,3.5966,3.5955,3.596,3.5854,3.5957,3.5956,3.5956,3.5955,3.5955,3.5414,3.5452,3.5497,3.5549,3.5582,3.562,3.5658,3.5685,3.5731,3.5787,3.5796,3.5853,3.5894,3.5961,3.5988,3.6031,3.6022,3.6038,3.6041,3.6045,3.6046,3.595,3.604,3.604,3.604,3.604,3.604,0,3.5498,3.5526,3.5574,3.5631,3.5672,3.5671,3.5716,3.5749,3.58,3.5838,3.5881,3.5942,3.5991,3.6024,3.6073,3.6101,3.6103,3.6114,3.6111,3.6116,3.6052,3.6037,3.6111,3.6111,3.6111,3.6111,3.6111,3.6111,3.5546,3.561,3.5627,3.5707,3.5735,3.5792,3.5817,3.5851,3.5882,3.595,3.5992,3.6014,3.6049,3.6101,3.6146,3.6154,3.6171,3.6182,3.6189,3.6129,3.6121,3.6114,3.61,3.6186,3.6186,3.625,3.625,3.6251]}]]